7 * 24
多渠道服务支持
FENGYUN 3A 是中国第二代极轨气象卫星“风云三号”系列的首颗卫星,于2008年发射。它主要用于全球气象观测,提供高分辨率的气象数据,支持天气预报、气候研究和环境监测。该卫星搭载多种先进仪器,如红外高光谱探测仪和微波成像仪,具备全天候、全天时的观测能力。FENGYUN 3A 的成功发射,标志着中国气象卫星技术迈上新台阶,提升了全球气象数据的获取能力。
中国
(CN)
| 数据来源 | 国际轨道数据 |
| 星历时间: | 2025-10-28T18:23:30+0800 21小时前 查看轨道信息 |
| 半长轴: | 7205.207km |
| 偏心率: | 0.0009811 |
| 轨道倾角: | 98.662° |
| 近地点辐角 | 76.938° |
| 升交点赤经 | 241.931° |
| 平近点角 | 283.289° |
| 近地点: | 820.002km |
| 远地点: | 834.142km |
| 周期: | 101.445分钟 |
| 每日圈数: | 14.194924 |